Location: *
(47.7167°N, 1.7333°W)
Time: 06:35:51
(UTC+00:00)

MOS 1 - Pass Details

Date: 09 April 2020
Orbit: 879 x 891 km, 99.2° (Epoch: 02 June)

Event Time Altitude Azimuth Distance (km) Brightness Sun altitude
Rises 19:12:09 0° 151° (SSE) 3,469 6.9 -4.6°
Reaches altitude 10° 19:14:33 10° 147° (SSE) 2,535 6.2 -5.0°
Maximum altitude 19:20:05 60° 69° (ENE) 1,009 4.4 -5.9°
Drops below altitude 10° 19:25:40 10° 351° (N) 2,560 7.1 -6.8°
Sets 19:28:06 0° 348° (NNW) 3,505 7.9 -7.2°
